"Pseudo-MPEC" for W07944

Created 2023 Nov 28 16:22:09 UT using Find_Orb

Click here for an explanation of pseudo-MPECs

 
 Astrometry: 
     W07944 * C2023 11 18X7)V!mXgQ(oeXxlHQ5:K^@#68FAstrometry+pSredacted;KNETO18
     W07944   C2023 11 18+F=3-\rclickX4eZeAJ%l.oxlp)bI.jH=On?m[LG=yY+nphere_PO18
     W07944   C2023 11 18+*T$vJafor^NpNv3$E,KXrx1Q)OEhexplanation=*sC4(G0R/nZO18

Station data:
(O18) WFST, Lenghu  (N38.607601 E93.895220).

Orbital elements:  W07944
   Perihelion 2024 Jan 26.33693 +/- 44.9 TT =  8:05:11 (JD 2460335.83693)
Epoch 2023 Nov 19.0 TT = JDT 2460267.5   Earth MOID: 0.1271   Ma: 0.0357
M 340.81001323 +/- 17               (J2000 ecliptic)             AutoNEOCP
n   0.28081427 +/- 0.26             Peri.   61.55906 +/- 54
a   2.30952814 +/- 1.43             Node    61.59249 +/- 28
e   0.5345534 +/- 0.246             Incl.    5.84833 +/- 4.0
P   3.51                   H 22.63  G  0.15   U 11.8  SR
q 1.07496182 +/- 0.394    Q 3.54409446 +/- 71.4
From 3 observations 2023 Nov. 18 (18.8 min); mean residual 0".05
Residuals in arcseconds: 
231118 O18  .04+  .02+    231118 O18  .09-  .04-    231118 O18  .04+  .02+    

Ephemerides (geocentric):
Date (UTC) HH   RA             Dec           delta  r     elong  mag " sig PA
---- --------  ------------   ------------  ------ ------ -----  --- --------
2023 11 28 16  04 20 15.083   +23 32 49.17  .29112 1.2775 177.5 20.7  46d  95
2023 11 28 17  04 20 14.163   +23 33 44.58  .29087 1.2772 177.5 20.7  46d  95
2023 11 28 18  04 20 13.241   +23 34 40.08  .29063 1.2770 177.5 20.7  46d  95
2023 11 28 19  04 20 12.318   +23 35 35.66  .29038 1.2767 177.5 20.7  46d  95
2023 11 28 20  04 20 11.392   +23 36 31.33  .29014 1.2765 177.5 20.7  46d  95
2023 11 28 21  04 20 10.464   +23 37 27.08  .28990 1.2762 177.5 20.7  46d  95
2023 11 28 22  04 20 09.534   +23 38 22.92  .28965 1.2760 177.6 20.7  46d  95
2023 11 28 23  04 20 08.602   +23 39 18.85  .28941 1.2757 177.6 20.7  46d  95
2023 11 29 00  04 20 07.668   +23 40 14.86  .28917 1.2755 177.6 20.7  46d  95
2023 11 29 01  04 20 06.732   +23 41 10.95  .28892 1.2752 177.6 20.7  46d  95
2023 11 29 02  04 20 05.794   +23 42 07.13  .28868 1.2750 177.6 20.7  46d  95
2023 11 29 03  04 20 04.854   +23 43 03.40  .28844 1.2747 177.6 20.7  46d  95
2023 11 29 04  04 20 03.912   +23 43 59.75  .28819 1.2745 177.6 20.7  46d  95
2023 11 29 05  04 20 02.968   +23 44 56.18  .28795 1.2742 177.6 20.7  46d  98
2023 11 29 06  04 20 02.022   +23 45 52.71  .28771 1.2740 177.6 20.7  46d  98
2023 11 29 07  04 20 01.073   +23 46 49.32  .28747 1.2737 177.6 20.7  46d  98
2023 11 29 08  04 20 00.123   +23 47 46.01  .28723 1.2735 177.6 20.7  46d  98
2023 11 29 09  04 19 59.171   +23 48 42.80  .28699 1.2732 177.6 20.7  46d  98
2023 11 29 10  04 19 58.218   +23 49 39.66  .28675 1.2730 177.6 20.7  46d  98
2023 11 29 11  04 19 57.262   +23 50 36.62  .28650 1.2727 177.6 20.7  46d  98
2023 11 29 12  04 19 56.304   +23 51 33.66  .28626 1.2725 177.6 20.7  46d  98
2023 11 29 13  04 19 55.344   +23 52 30.79  .28602 1.2722 177.5 20.7  46d  98
2023 11 29 14  04 19 54.382   +23 53 28.00  .28578 1.2720 177.5 20.7  46d 102
2023 11 29 15  04 19 53.418   +23 54 25.30  .28554 1.2717 177.5 20.7  46d 102
2023 11 29 16  04 19 52.453   +23 55 22.69  .28530 1.2715 177.5 20.7  46d 102
2023 11 29 17  04 19 51.485   +23 56 20.17  .28506 1.2713 177.5 20.7  46d 101
2023 11 29 18  04 19 50.516   +23 57 17.73  .28483 1.2710 177.5 20.7  47d 100
2023 11 29 19  04 19 49.544   +23 58 15.38  .28459 1.2708 177.5 20.7  47d  99
2023 11 29 20  04 19 48.571   +23 59 13.12  .28435 1.2705 177.5 20.7  48d  99
2023 11 29 21  04 19 47.596   +24 00 10.94  .28411 1.2703 177.5 20.7  48d  99
2023 11 29 22  04 19 46.619   +24 01 08.85  .28387 1.2700 177.5 20.7  48d  99
2023 11 29 23  04 19 45.640   +24 02 06.85  .28363 1.2698 177.4 20.7  48d  99
2023 11 30 00  04 19 44.659   +24 03 04.94  .28339 1.2695 177.4 20.7  48d  99
2023 11 30 01  04 19 43.677   +24 04 03.12  .28316 1.2693 177.4 20.6  48d 100
2023 11 30 02  04 19 42.692   +24 05 01.38  .28292 1.2690 177.4 20.6  48d 100
2023 11 30 03  04 19 41.706   +24 05 59.73  .28268 1.2688 177.4 20.6  48d 100
2023 11 30 04  04 19 40.717   +24 06 58.17  .28245 1.2685 177.4 20.6  48d 100
2023 11 30 05  04 19 39.727   +24 07 56.69  .28221 1.2683 177.3 20.6  48d 100
2023 11 30 06  04 19 38.736   +24 08 55.31  .28197 1.2680 177.3 20.6  49d 100
2023 11 30 07  04 19 37.742   +24 09 54.01  .28174 1.2678 177.3 20.6  49d 100
2023 11 30 08  04 19 36.746   +24 10 52.81  .28150 1.2675 177.3 20.6  49d 101
2023 11 30 09  04 19 35.749   +24 11 51.69  .28127 1.2673 177.3 20.6  49d 101
2023 11 30 10  04 19 34.750   +24 12 50.66  .28103 1.2671 177.2 20.6  49d 101
2023 11 30 11  04 19 33.749   +24 13 49.71  .28079 1.2668 177.2 20.6  49d 101
2023 11 30 12  04 19 32.746   +24 14 48.86  .28056 1.2666 177.2 20.6  49d 101
2023 11 30 13  04 19 31.741   +24 15 48.10  .28032 1.2663 177.2 20.6  49d 101
2023 11 30 14  04 19 30.735   +24 16 47.42  .28009 1.2661 177.1 20.6  49d 101
2023 11 30 15  04 19 29.727   +24 17 46.83  .27986 1.2658 177.1 20.6  49d 101